| time (UTC) | temp C | wind direction | speed KPH | gust KPH | rain 1hr cm | rain 24hr cm | rain mn cm | humidity % | barometer mb |
| 20260506133102 | 21 | 240 | 9.7 | 0.0 | 0.00 | 0.00 | 0.00 | 46 | 1005.0 |
| 20260506131908 | 21 | 210 | 8.0 | 0.0 | 0.00 | 0.00 | 0.00 | 46 | |
| 20260506130103 | 21 | 220 | 9.7 | 0.0 | 0.00 | 0.00 | 0.00 | 49 | 1005.0 |
| 20260506123103 | 20 | 220 | 4.8 | 0.0 | 0.00 | 0.00 | 0.00 | 49 | 1006.0 |
| 20260506121908 | 20 | 220 | 14.5 | 0.0 | 0.00 | 0.00 | 0.00 | 49 | |
| 20260506120103 | 20 | 250 | 12.9 | 0.0 | 0.00 | 0.00 | 0.00 | 52 | 1006.0 |
| 20260506113103 | 20 | 230 | 16.1 | 0.0 | 0.00 | 0.00 | 0.00 | 52 | 1006.0 |
| 20260506111854 | 18 | 230 | 14.5 | 0.0 | 0.00 | 0.00 | 0.00 | 52 | |
| 20260506110103 | 18 | 230 | 16.1 | 0.0 | 0.00 | 0.00 | 0.00 | 55 | 1006.0 |
| 20260506103103 | 18 | 220 | 19.3 | 0.0 | 0.00 | 0.00 | 0.00 | 59 | 1007.0 |
| 20260506102055 | 17 | 210 | 19.3 | 0.0 | 0.00 | 0.00 | 0.00 | 59 | |
| 20260506093103 | 17 | 220 | 16.1 | 0.0 | 0.00 | 0.00 | 0.00 | 59 | 1007.0 |
| 20260506091853 | 17 | 210 | 19.3 | 0.0 | 0.00 | 0.00 | 0.00 | 63 | |
| 20260506083103 | 17 | 210 | 20.9 | 0.0 | 0.00 | 0.00 | 0.00 | 67 | 1007.0 |
| 20260506081851 | 16 | 220 | 19.3 | 0.0 | 0.00 | 0.00 | 0.00 | 67 | |
| 20260506080210 | 16 | 220 | 19.3 | 0.0 | 0.00 | 0.00 | 0.00 | 72 | 1006.0 |
| 20260506073103 | 16 | 220 | 19.3 | 0.0 | 0.00 | 0.00 | 0.00 | 72 | 1006.0 |
| 20260506071853 | 15 | 220 | 19.3 | 0.0 | 0.00 | 0.00 | 0.00 | 77 | |
| 20260506070103 | 15 | 210 | 16.1 | 0.0 | 0.00 | 0.00 | 0.00 | 77 | 1006.0 |
| 20260506061855 | 13 | 200 | 19.3 | 0.0 | 0.00 | 0.00 | 0.00 | 82 | |
| 20260506050210 | 12 | 220 | 14.5 | 0.0 | 0.00 | 0.00 | 0.00 | 87 | 1006.0 |
| 20260506043103 | 12 | 220 | 16.1 | 0.0 | 0.00 | 0.00 | 0.00 | 93 | 1006.0 |
| 20260506042051 | 12 | 210 | 19.3 | 0.0 | 0.00 | 0.00 | 0.00 | 87 | |
| 20260506033102 | 12 | 220 | 12.9 | 0.0 | 0.00 | 0.00 | 0.00 | 93 | 1006.0 |
| 20260506031854 | 12 | 220 | 14.5 | 0.0 | 0.00 | 0.00 | 0.00 | 93 | |
| 20260506030103 | 12 | 210 | 14.5 | 0.0 | 0.00 | 0.00 | 0.00 | 93 | 1006.0 |
| 20260506023103 | 12 | 220 | 12.9 | 0.0 | 0.00 | 0.00 | 0.00 | 93 | 1006.0 |
| 20260506021854 | 12 | 200 | 8.0 | 0.0 | 0.00 | 0.00 | 0.00 | 99 | |
| 20260506020213 | 12 | 200 | 8.0 | 0.0 | 0.00 | 0.00 | 0.00 | 93 | 1006.0 |
| 20260506015004 | 12 | 180 | 8.0 | 0.0 | 0.00 | 0.00 | 0.00 | 93 | 1006.0 |
| 20260506013102 | 12 | 170 | 4.8 | 0.0 | 0.00 | 0.00 | 0.00 | 100 | 1006.0 |
| 20260506012702 | 12 | 170 | 4.8 | 0.0 | 0.00 | 0.00 | 0.00 | 100 | 1006.0 |
| 20260506011953 | 12 | 150 | 3.2 | 0.0 | 0.00 | 0.00 | 0.00 | 93 | |
| 20260506011902 | 12 | 160 | 8.0 | 0.0 | 0.00 | 0.00 | 0.00 | 93 | 1006.0 |
| 20260506003209 | 12 | 0 | 3.2 | 0.0 | 0.00 | 0.00 | 0.00 | 93 | 1006.0 |
| 20260506001851 | 12 | 280 | 8.0 | 0.0 | 0.00 | 0.00 | 0.00 | 93 | |
| 20260505233103 | 12 | 0 | 1.6 | 0.0 | 0.00 | 0.00 | 0.00 | 93 | 1006.0 |
| 20260505231852 | 12 | 290 | 3.2 | 0.0 | 0.00 | 0.00 | 0.00 | 93 | |
| 20260505230212 | 12 | 290 | 8.0 | 0.0 | 0.00 | 0.00 | 0.00 | 93 | 1006.0 |
| 20260505224003 | 12 | 290 | 11.3 | 0.0 | 0.00 | 0.00 | 0.00 | 93 | 1006.0 |
| 20260505223103 | 13 | 290 | 12.9 | 0.0 | 0.00 | 0.00 | 0.00 | 93 | 1006.0 |
| 20260505221851 | 13 | 270 | 22.5 | 0.0 | 0.00 | 0.00 | 0.00 | 87 | |
| 20260505220703 | 13 | 270 | 20.9 | 0.0 | 0.00 | 0.00 | 0.00 | 93 | 1006.0 |
| 20260505213102 | 15 | 260 | 20.9 | 0.0 | 0.00 | 0.00 | 0.00 | 87 | 1006.0 |
| 20260505211925 | 16 | 280 | 14.5 | 0.0 | 0.00 | 0.00 | 0.00 | 77 | |
| 20260505211808 | 16 | 260 | 20.9 | 0.0 | 0.00 | 0.00 | 0.00 | 82 | 1006.0 |
| 20260505210218 | 16 | 290 | 12.9 | 0.0 | 0.00 | 0.00 | 0.00 | 77 | 1006.0 |
| 20260505203102 | 17 | 240 | 20.9 | 0.0 | 0.00 | 0.00 | 0.00 | 59 | 1004.0 |
| 20260505202903 | 17 | 240 | 20.9 | 0.0 | 0.00 | 0.00 | 0.00 | 59 | 1004.0 |
| 20260505201908 | 17 | 320 | 8.0 | 0.0 | 0.00 | 0.00 | 0.00 | 63 | |
| 20260505200219 | 17 | 320 | 9.7 | 0.0 | 0.00 | 0.00 | 0.00 | 63 | 1003.0 |
| 20260505193103 | 17 | 340 | 9.7 | 0.0 | 0.00 | 0.00 | 0.00 | 67 | 1003.0 |
| 20260505191925 | 17 | 30 | 8.0 | 0.0 | 0.00 | 0.00 | 0.00 | 67 | |
| 20260505190211 | 17 | 40 | 9.7 | 0.0 | 0.00 | 0.00 | 0.00 | 67 | 1004.0 |
| 20260505183102 | 18 | 70 | 16.1 | 0.0 | 0.00 | 0.00 | 0.00 | 55 | 1004.0 |
| 20260505181910 | 18 | 110 | 19.3 | 0.0 | 0.00 | 0.00 | 0.00 | 52 | |
| 20260505180103 | 18 | 110 | 19.3 | 0.0 | 0.00 | 0.00 | 0.00 | 55 | 1004.0 |
| 20260505174403 | 18 | 120 | 19.3 | 0.0 | 0.00 | 0.00 | 0.00 | 55 | 1004.0 |
| 20260505173102 | 20 | 120 | 24.1 | 0.0 | 0.00 | 0.00 | 0.00 | 52 | 1004.0 |
| 20260505171852 | 20 | 120 | 25.7 | 0.0 | 0.00 | 0.00 | 0.00 | 52 | |
| 20260505170103 | 20 | 130 | 25.7 | 0.0 | 0.00 | 0.00 | 0.00 | 52 | 1005.0 |
| 20260505163209 | 23 | 50 | 11.3 | 0.0 | 0.00 | 0.00 | 0.00 | 33 | 1004.0 |
| 20260505162024 | 23 | 60 | 11.3 | 0.0 | 0.00 | 0.00 | 0.00 | 36 | |
| 20260505153210 | 23 | 80 | 8.0 | 0.0 | 0.00 | 0.00 | 0.00 | 36 | 1005.0 |
| 20260505151908 | 22 | 80 | 8.0 | 0.0 | 0.00 | 0.00 | 0.00 | 38 | |
| 20260505150212 | 22 | 110 | 4.8 | 0.0 | 0.00 | 0.00 | 0.00 | 40 | 1005.0 |
| 20260505140211 | 23 | 20 | 9.7 | 0.0 | 0.00 | 0.00 | 0.00 | 38 | 1005.0 |